Zurück zum Katalog

ATLAS 5 CENTAUR DEB

AktivHEO
NORAD 44668·DEBRIS·🇺🇸 United States

Gestartet Oct 17, 2018 von Cape Canaveral Space Force Station

Loading…

Nächste Überflüge (nächste 24 Stunden)

TLE

AlterndSource: Space-Track

Epoche: Sep 3, 2026, 09:12 UTC

1 44668U 18079AE  26246.38343730 -.00000080  00000-0  00000-0 0  9993
2 44668  13.4899 351.0845 4557101  47.2792 342.9813  1.97451323 52376

Verfolge ATLAS 5 CENTAUR DEB in Echtzeit mit AllMySat

Download on the App Store